Location: Lichtensteig
(47.3376°N, 9.0841°E)
Time: 23:49:55
(UTC+00:00)

APEX - Pass Details

Date: 03 March 2021
Orbit: 332 x 1081 km, 69.9° (Epoch: 14 April)

Event Time Altitude Azimuth Distance (km) Brightness Sun altitude
Rises 17:46:06 0° 327° (NNW) 2,232 6.9 -6.6°
Reaches altitude 10° 17:48:12 10° 321° (NW) 1,324 5.8 -6.9°
Maximum altitude 17:50:56 48° 246° (WSW) 454 3.5 -7.4°
Drops below altitude 10° 17:53:33 10° 169° (S) 1,265 5.1 -7.9°
Sets 17:55:31 0° 164° (SSE) 2,115 6.2 -8.2°
